Location: ??????
(38.1303°N, 24.0039°E)
Time: 18:17:43
(UTC+00:00)

Cosmos 1076 Rocket - Pass Details

Date: 20 June 2021
Orbit: 590 x 611 km, 82.5° (Epoch: 27 July)

Event Time Altitude Azimuth Distance (km) Brightness Sun altitude
Exits shadow 00:12:57 68° 294° (WNW) 640 3.5 -23.5°
Drops below altitude 10° 00:17:02 10° 2° (N) 1,926 7.0 -23.1°
Sets 00:19:15 0° 5° (N) 2,833 8.1 -22.9°
